BTK6656 WIII-WADL

Flight info

Callsign BTK6656
Flight time 1h 29m
Altitude 35000
Route CA T3 BA T19 SOVKA
Aircraft B738/M-SDE2E3FGHIRWXY/LB1

Departure

Time 2026-04-15 08:25
Airport Soekarno-Hatta International Airport (WIII)

Arrival

Time 2026-04-15 09:54
Airport Lombok International Airport (WADL)
Time Latitude Longitude Altitude Speed Heading
2026-04-15 08:07 -6.11958 106.65179 43 ft 0 kts 192°
2026-04-15 08:12 -6.11957 106.65179 43 ft 0 kts 192°
2026-04-15 08:13 -6.11947 106.65183 43 ft 2 kts 192°
2026-04-15 08:13 -6.11932 106.65185 43 ft 2 kts 192°
2026-04-15 08:13 -6.11918 106.65189 43 ft 2 kts 192°
2026-04-15 08:13 -6.11903 106.65192 43 ft 2 kts 192°
2026-04-15 08:14 -6.11888 106.65196 43 ft 2 kts 192°
2026-04-15 08:14 -6.11873 106.65198 43 ft 2 kts 192°
2026-04-15 08:14 -6.11860 106.65205 43 ft 1 kts 238°
2026-04-15 08:14 -6.11858 106.65210 43 ft 1 kts 253°
2026-04-15 08:15 -6.11857 106.65214 43 ft 0 kts 249°
2026-04-15 08:16 -6.11857 106.65213 43 ft 0 kts 249°
2026-04-15 08:16 -6.11862 106.65200 43 ft 2 kts 249°
2026-04-15 08:16 -6.11871 106.65177 43 ft 3 kts 248°
2026-04-15 08:17 -6.11882 106.65150 43 ft 4 kts 247°
2026-04-15 08:17 -6.11897 106.65112 43 ft 7 kts 248°
2026-04-15 08:17 -6.11920 106.65055 43 ft 9 kts 250°
2026-04-15 08:17 -6.11883 106.65003 43 ft 10 kts 333°
2026-04-15 08:18 -6.11873 106.64934 43 ft 12 kts 251°
2026-04-15 08:18 -6.11907 106.64843 43 ft 15 kts 248°
2026-04-15 08:18 -6.11950 106.64737 43 ft 17 kts 248°
2026-04-15 08:18 -6.12043 106.64688 43 ft 14 kts 194°
2026-04-15 08:19 -6.12100 106.64598 43 ft 16 kts 248°
2026-04-15 08:19 -6.12150 106.64480 43 ft 19 kts 245°
2026-04-15 08:19 -6.12208 106.64349 43 ft 21 kts 248°
2026-04-15 08:19 -6.12267 106.64204 43 ft 22 kts 246°
2026-04-15 08:20 -6.12324 106.64062 43 ft 20 kts 247°
2026-04-15 08:20 -6.12327 106.63944 43 ft 15 kts 317°
2026-04-15 08:20 -6.12243 106.63911 43 ft 10 kts 338°
2026-04-15 08:20 -6.12223 106.63902 43 ft 1 kts 338°
2026-04-15 08:21 -6.12217 106.63900 43 ft 0 kts 338°
2026-04-15 08:21 -6.12205 106.63896 43 ft 6 kts 342°
2026-04-15 08:21 -6.12132 106.63902 43 ft 14 kts 36°
2026-04-15 08:21 -6.12071 106.63959 43 ft 9 kts 64°
2026-04-15 08:22 -6.12065 106.63975 43 ft 0 kts 68°
2026-04-15 08:24 -6.12047 106.64019 43 ft 18 kts 68°
2026-04-15 08:24 -6.11938 106.64293 43 ft 80 kts 68°
2026-04-15 08:24 -6.11625 106.65080 44 ft 156 kts 67°
2026-04-15 08:24 -6.11165 106.66273 235 ft 199 kts 68°
2026-04-15 08:25 -6.10639 106.67683 626 ft 229 kts 69°
2026-04-15 08:25 -6.10112 106.69243 975 ft 236 kts 71°
2026-04-15 08:25 -6.09620 106.70840 1363 ft 238 kts 66°
2026-04-15 08:25 -6.08648 106.72222 1756 ft 238 kts 43°
2026-04-15 08:26 -6.07414 106.73367 2142 ft 240 kts 42°
2026-04-15 08:26 -6.06159 106.74513 2525 ft 244 kts 39°
2026-04-15 08:26 -6.04747 106.75649 2926 ft 261 kts 38°
2026-04-15 08:26 -6.03288 106.76828 3308 ft 265 kts 39°
2026-04-15 08:27 -6.01997 106.78153 3673 ft 267 kts 58°
2026-04-15 08:27 -6.01468 106.79960 4050 ft 270 kts 91°
2026-04-15 08:27 -6.02007 106.81796 4444 ft 275 kts 118°
2026-04-15 08:27 -6.02944 106.83511 4834 ft 284 kts 113°
2026-04-15 08:28 -6.03627 106.85506 5221 ft 315 kts 103°
2026-04-15 08:28 -6.04143 106.87804 5606 ft 344 kts 101°
2026-04-15 08:28 -6.04626 106.90193 5973 ft 354 kts 101°
2026-04-15 08:28 -6.05116 106.92701 6356 ft 356 kts 100°
2026-04-15 08:29 -6.05596 106.95221 6740 ft 358 kts 100°
2026-04-15 08:29 -6.06064 106.97710 7120 ft 359 kts 100°
2026-04-15 08:29 -6.06526 107.00186 7920 ft 356 kts 100°
2026-04-15 08:29 -6.06987 107.02668 8909 ft 361 kts 100°
2026-04-15 08:30 -6.07455 107.05197 9674 ft 371 kts 100°
2026-04-15 08:30 -6.07937 107.07805 10624 ft 375 kts 100°
2026-04-15 08:30 -6.08421 107.10418 11431 ft 381 kts 100°
2026-04-15 08:30 -6.08911 107.13071 12292 ft 385 kts 100°
2026-04-15 08:31 -6.09410 107.15767 13107 ft 389 kts 100°
2026-04-15 08:31 -6.10083 107.18475 13869 ft 394 kts 110°
2026-04-15 08:31 -6.11153 107.21038 14675 ft 396 kts 114°
2026-04-15 08:31 -6.12276 107.23563 15345 ft 401 kts 113°
2026-04-15 08:32 -6.13412 107.26166 16047 ft 405 kts 113°
2026-04-15 08:32 -6.14461 107.28577 16662 ft 408 kts 113°
2026-04-15 08:32 -6.15590 107.31166 17295 ft 411 kts 113°
2026-04-15 08:32 -6.16732 107.33785 17908 ft 415 kts 113°
2026-04-15 08:33 -6.17895 107.36452 18506 ft 418 kts 113°
2026-04-15 08:33 -6.18958 107.39161 19047 ft 421 kts 106°
2026-04-15 08:33 -6.19642 107.41999 19626 ft 423 kts 101°
2026-04-15 08:33 -6.20235 107.44909 20170 ft 426 kts 101°
2026-04-15 08:34 -6.20844 107.47825 20666 ft 430 kts 102°
2026-04-15 08:34 -6.21456 107.50732 21165 ft 432 kts 102°
2026-04-15 08:34 -6.22085 107.53719 21648 ft 435 kts 102°
2026-04-15 08:34 -6.22706 107.56664 22115 ft 438 kts 102°
2026-04-15 08:35 -6.23337 107.59646 22561 ft 440 kts 102°
2026-04-15 08:35 -6.23981 107.62684 22998 ft 443 kts 102°
2026-04-15 08:35 -6.24627 107.65726 23417 ft 446 kts 101°
2026-04-15 08:35 -6.25171 107.68287 23763 ft 448 kts 101°
2026-04-15 08:36 -6.25818 107.71333 24161 ft 450 kts 101°
2026-04-15 08:36 -6.26468 107.74383 24551 ft 452 kts 101°
2026-04-15 08:36 -6.27137 107.77515 24928 ft 455 kts 101°
2026-04-15 08:36 -6.27801 107.80618 25286 ft 457 kts 101°
2026-04-15 08:37 -6.28465 107.83717 25650 ft 459 kts 101°
2026-04-15 08:37 -6.29133 107.86831 26000 ft 461 kts 101°
2026-04-15 08:37 -6.29816 107.90012 26402 ft 461 kts 101°
2026-04-15 08:37 -6.30495 107.93164 26810 ft 461 kts 101°
2026-04-15 08:38 -6.31174 107.96311 27228 ft 461 kts 101°
2026-04-15 08:38 -6.31854 107.99457 27654 ft 460 kts 101°
2026-04-15 08:38 -6.32532 108.02583 28080 ft 459 kts 102°
2026-04-15 08:38 -6.33204 108.05676 28491 ft 458 kts 102°
2026-04-15 08:39 -6.33891 108.08837 28912 ft 457 kts 102°
2026-04-15 08:39 -6.34564 108.11921 29338 ft 456 kts 102°
2026-04-15 08:39 -6.35240 108.15011 29734 ft 455 kts 102°
2026-04-15 08:39 -6.35909 108.18064 30124 ft 454 kts 102°
2026-04-15 08:40 -6.36586 108.21144 30538 ft 453 kts 102°
2026-04-15 08:40 -6.37255 108.24178 30904 ft 452 kts 102°
2026-04-15 08:40 -6.37932 108.27240 31293 ft 451 kts 102°
2026-04-15 08:40 -6.38615 108.30326 31669 ft 450 kts 102°
2026-04-15 08:41 -6.39290 108.33367 32037 ft 449 kts 102°
2026-04-15 08:41 -6.39970 108.36419 32402 ft 447 kts 102°
2026-04-15 08:41 -6.40654 108.39490 32757 ft 446 kts 102°
2026-04-15 08:41 -6.41326 108.42503 33112 ft 445 kts 102°
2026-04-15 08:42 -6.42006 108.45535 33445 ft 444 kts 102°
2026-04-15 08:42 -6.42686 108.48565 33786 ft 443 kts 102°
2026-04-15 08:42 -6.43362 108.51568 34105 ft 442 kts 102°
2026-04-15 08:42 -6.44037 108.54561 34426 ft 441 kts 102°
2026-04-15 08:43 -6.44711 108.57549 34718 ft 441 kts 102°
2026-04-15 08:43 -6.46058 108.63525 34802 ft 438 kts 102°
2026-04-15 08:44 -6.47375 108.69352 34804 ft 432 kts 102°
2026-04-15 08:44 -6.48710 108.75252 34805 ft 433 kts 102°
2026-04-15 08:45 -6.50069 108.81258 34804 ft 434 kts 102°
2026-04-15 08:45 -6.51424 108.87256 34804 ft 434 kts 102°
2026-04-15 08:46 -6.52772 108.93224 34804 ft 434 kts 102°
2026-04-15 08:46 -6.54131 108.99231 34804 ft 434 kts 102°
2026-04-15 08:47 -6.55465 109.05177 34804 ft 433 kts 102°
2026-04-15 08:47 -6.56800 109.11199 34804 ft 433 kts 102°
2026-04-15 08:48 -6.58111 109.17187 34804 ft 434 kts 102°
2026-04-15 08:48 -6.59415 109.23209 34804 ft 434 kts 102°
2026-04-15 08:49 -6.60705 109.29191 34804 ft 434 kts 102°
2026-04-15 08:49 -6.62007 109.35221 34804 ft 434 kts 102°
2026-04-15 08:50 -6.62710 109.41241 34802 ft 442 kts 84°
2026-04-15 08:50 -6.62858 109.47531 34806 ft 452 kts 103°
2026-04-15 08:51 -6.64470 109.53661 34802 ft 453 kts 103°
2026-04-15 08:51 -6.65833 109.59843 34803 ft 451 kts 101°
2026-04-15 08:52 -6.67074 109.66099 34803 ft 451 kts 101°
2026-04-15 08:52 -6.68267 109.72331 34803 ft 451 kts 100°
2026-04-15 08:53 -6.69428 109.78563 34803 ft 451 kts 100°
2026-04-15 08:53 -6.70562 109.84745 34803 ft 451 kts 100°
2026-04-15 08:54 -6.71692 109.90956 34804 ft 451 kts 100°
2026-04-15 08:54 -6.72798 109.97068 34804 ft 451 kts 99°
2026-04-15 08:55 -6.73905 110.03206 34804 ft 451 kts 99°
2026-04-15 08:55 -6.75011 110.09347 34804 ft 450 kts 99°
2026-04-15 08:56 -6.76120 110.15517 34804 ft 451 kts 99°
2026-04-15 08:56 -6.77229 110.21690 34803 ft 450 kts 99°
2026-04-15 08:57 -6.78332 110.27840 34804 ft 451 kts 99°
2026-04-15 08:57 -6.79433 110.33983 34804 ft 451 kts 99°
2026-04-15 08:58 -6.80532 110.40122 34804 ft 451 kts 99°
2026-04-15 08:58 -6.82187 110.49371 34804 ft 451 kts 99°
2026-04-15 08:59 -6.83300 110.55595 34803 ft 451 kts 99°
2026-04-15 08:59 -6.84400 110.61755 34804 ft 451 kts 99°
2026-04-15 09:00 -6.85504 110.67944 34804 ft 451 kts 99°
2026-04-15 09:00 -6.86605 110.74114 34803 ft 450 kts 99°
2026-04-15 09:01 -6.87707 110.80301 34804 ft 450 kts 99°
2026-04-15 09:01 -6.88806 110.86471 34804 ft 451 kts 99°
2026-04-15 09:02 -6.89939 110.92841 34803 ft 451 kts 99°
2026-04-15 09:02 -6.91092 110.99327 34804 ft 452 kts 99°
2026-04-15 09:03 -6.92236 111.05770 34803 ft 452 kts 99°
2026-04-15 09:03 -6.93380 111.12217 34804 ft 452 kts 99°
2026-04-15 09:04 -6.94531 111.18709 34804 ft 452 kts 99°
2026-04-15 09:04 -6.95676 111.25170 34804 ft 452 kts 100°
2026-04-15 09:05 -6.96814 111.31599 34804 ft 452 kts 100°
2026-04-15 09:05 -6.97960 111.38081 34803 ft 452 kts 100°
2026-04-15 09:06 -6.99111 111.44589 34804 ft 452 kts 100°
2026-04-15 09:06 -7.00258 111.51086 34804 ft 452 kts 100°
2026-04-15 09:07 -7.01408 111.57604 34803 ft 452 kts 100°
2026-04-15 09:07 -7.02558 111.64120 34804 ft 453 kts 100°
2026-04-15 09:08 -7.03698 111.70595 34804 ft 453 kts 100°
2026-04-15 09:08 -7.04842 111.77097 34804 ft 453 kts 100°
2026-04-15 09:09 -7.05987 111.83606 34804 ft 452 kts 100°
2026-04-15 09:09 -7.07132 111.90121 34804 ft 452 kts 100°
2026-04-15 09:10 -7.08276 111.96636 34804 ft 452 kts 100°
2026-04-15 09:10 -7.09420 112.03156 34804 ft 452 kts 100°
2026-04-15 09:11 -7.10556 112.09633 34804 ft 452 kts 100°
2026-04-15 09:11 -7.11689 112.16103 34804 ft 452 kts 100°
2026-04-15 09:12 -7.12831 112.22624 34804 ft 453 kts 100°
2026-04-15 09:12 -7.13965 112.29110 34804 ft 453 kts 100°
2026-04-15 09:13 -7.15097 112.35589 34804 ft 452 kts 100°
2026-04-15 09:13 -7.16228 112.42067 34804 ft 452 kts 100°
2026-04-15 09:14 -7.17358 112.48547 34804 ft 452 kts 100°
2026-04-15 09:14 -7.18485 112.55014 34804 ft 452 kts 100°
2026-04-15 09:15 -7.19611 112.61483 34804 ft 452 kts 100°
2026-04-15 09:15 -7.20744 112.67993 34804 ft 452 kts 99°
2026-04-15 09:16 -7.21866 112.74447 34804 ft 453 kts 99°
2026-04-15 09:16 -7.22996 112.80954 34803 ft 453 kts 99°
2026-04-15 09:17 -7.24119 112.87419 34803 ft 453 kts 99°
2026-04-15 09:17 -7.25249 112.93932 34804 ft 454 kts 99°
2026-04-15 09:18 -7.26388 113.00504 34804 ft 455 kts 99°
2026-04-15 09:18 -7.27512 113.06994 34804 ft 457 kts 99°
2026-04-15 09:19 -7.28641 113.13525 34803 ft 456 kts 99°
2026-04-15 09:19 -7.29737 113.19872 34804 ft 456 kts 99°
2026-04-15 09:20 -7.30837 113.26241 34804 ft 456 kts 99°
2026-04-15 09:20 -7.31913 113.32476 34800 ft 444 kts 99°
2026-04-15 09:21 -7.32985 113.38698 34805 ft 443 kts 99°
2026-04-15 09:21 -7.34037 113.44810 34804 ft 445 kts 99°
2026-04-15 09:22 -7.35107 113.51027 34804 ft 445 kts 99°
2026-04-15 09:22 -7.36171 113.57221 34804 ft 445 kts 99°
2026-04-15 09:23 -7.37225 113.63356 34687 ft 447 kts 99°
2026-04-15 09:23 -7.37760 113.66474 34275 ft 450 kts 99°
2026-04-15 09:23 -7.38294 113.69587 33871 ft 447 kts 99°
2026-04-15 09:24 -7.38826 113.72684 33467 ft 444 kts 99°
2026-04-15 09:24 -7.39354 113.75767 33065 ft 444 kts 99°
2026-04-15 09:24 -7.39882 113.78846 32820 ft 443 kts 99°
2026-04-15 09:24 -7.40404 113.81898 32826 ft 445 kts 99°
2026-04-15 09:25 -7.41469 113.88121 32835 ft 451 kts 99°
2026-04-15 09:25 -7.42546 113.94418 32845 ft 450 kts 99°
2026-04-15 09:26 -7.43612 114.00655 32855 ft 450 kts 99°
2026-04-15 09:26 -7.44679 114.06902 32858 ft 450 kts 99°
2026-04-15 09:27 -7.45726 114.13043 32858 ft 450 kts 99°
2026-04-15 09:27 -7.46774 114.19186 32857 ft 450 kts 99°
2026-04-15 09:28 -7.47820 114.25330 32858 ft 450 kts 99°
2026-04-15 09:28 -7.48860 114.31442 32858 ft 450 kts 99°
2026-04-15 09:29 -7.49902 114.37570 32858 ft 450 kts 99°
2026-04-15 09:29 -7.50957 114.43782 32858 ft 450 kts 99°
2026-04-15 09:30 -7.52013 114.50005 32858 ft 450 kts 99°
2026-04-15 09:30 -7.53060 114.56181 32703 ft 449 kts 99°
2026-04-15 09:31 -7.53591 114.59314 32192 ft 452 kts 99°
2026-04-15 09:31 -7.54115 114.62408 31696 ft 452 kts 99°
2026-04-15 09:31 -7.54641 114.65513 31197 ft 451 kts 98°
2026-04-15 09:31 -7.55157 114.68560 30708 ft 451 kts 99°
2026-04-15 09:32 -7.55681 114.71658 30211 ft 451 kts 99°
2026-04-15 09:32 -7.56204 114.74754 29714 ft 451 kts 99°
2026-04-15 09:32 -7.56723 114.77826 29220 ft 452 kts 99°
2026-04-15 09:32 -7.57253 114.80965 28719 ft 455 kts 99°
2026-04-15 09:33 -7.57784 114.84112 28220 ft 459 kts 99°
2026-04-15 09:33 -7.58314 114.87252 27725 ft 461 kts 99°
2026-04-15 09:33 -7.58850 114.90429 27224 ft 461 kts 99°
2026-04-15 09:33 -7.59390 114.93627 26720 ft 461 kts 99°
2026-04-15 09:34 -7.59928 114.96818 26218 ft 462 kts 99°
2026-04-15 09:34 -7.60465 115.00008 25717 ft 462 kts 99°
2026-04-15 09:34 -7.60997 115.03168 25220 ft 462 kts 99°
2026-04-15 09:34 -7.61526 115.06314 24725 ft 462 kts 99°
2026-04-15 09:35 -7.62061 115.09492 24223 ft 460 kts 99°
2026-04-15 09:35 -7.62588 115.12624 23725 ft 456 kts 99°
2026-04-15 09:35 -7.63109 115.15722 23228 ft 452 kts 99°
2026-04-15 09:35 -7.63633 115.18843 22725 ft 449 kts 99°
2026-04-15 09:36 -7.64153 115.21940 22221 ft 446 kts 99°
2026-04-15 09:36 -7.64680 115.25074 21710 ft 443 kts 99°
2026-04-15 09:36 -7.65378 115.28130 21191 ft 441 kts 110°
2026-04-15 09:36 -7.66932 115.30821 20685 ft 439 kts 130°
2026-04-15 09:37 -7.69249 115.32877 20201 ft 438 kts 142°
2026-04-15 09:37 -7.71675 115.34792 19680 ft 436 kts 140°
2026-04-15 09:37 -7.74039 115.36741 19172 ft 433 kts 140°
2026-04-15 09:37 -7.76382 115.38684 18663 ft 430 kts 140°
2026-04-15 09:38 -7.78708 115.40610 18155 ft 427 kts 140°
2026-04-15 09:38 -7.81023 115.42528 17645 ft 423 kts 140°
2026-04-15 09:38 -7.83317 115.44428 17210 ft 408 kts 140°
2026-04-15 09:38 -7.85479 115.46220 16832 ft 394 kts 140°
2026-04-15 09:39 -7.87584 115.47965 16455 ft 384 kts 140°
2026-04-15 09:39 -7.89680 115.49704 16125 ft 383 kts 140°
2026-04-15 09:39 -7.91763 115.51433 15798 ft 384 kts 140°
2026-04-15 09:39 -7.93825 115.53142 15472 ft 383 kts 140°
2026-04-15 09:40 -7.95846 115.54820 15152 ft 382 kts 140°
2026-04-15 09:40 -7.97890 115.56516 14826 ft 380 kts 140°
2026-04-15 09:40 -7.99940 115.58218 14497 ft 378 kts 140°
2026-04-15 09:40 -8.01980 115.59911 14169 ft 376 kts 140°
2026-04-15 09:41 -8.04008 115.61595 13841 ft 375 kts 140°
2026-04-15 09:41 -8.06006 115.63253 13517 ft 373 kts 140°
2026-04-15 09:41 -8.07965 115.64880 13198 ft 371 kts 140°
2026-04-15 09:41 -8.09948 115.66527 12873 ft 370 kts 140°
2026-04-15 09:42 -8.11940 115.68181 12545 ft 368 kts 140°
2026-04-15 09:42 -8.13897 115.69807 12222 ft 367 kts 140°
2026-04-15 09:42 -8.15829 115.71412 11902 ft 365 kts 140°
2026-04-15 09:42 -8.17778 115.73031 11577 ft 363 kts 140°
2026-04-15 09:43 -8.19691 115.74621 11256 ft 361 kts 140°
2026-04-15 09:43 -8.21609 115.76215 10931 ft 357 kts 140°
2026-04-15 09:43 -8.23506 115.77791 10597 ft 344 kts 140°
2026-04-15 09:43 -8.25337 115.79312 10269 ft 334 kts 140°
2026-04-15 09:44 -8.27112 115.80788 9944 ft 329 kts 140°
2026-04-15 09:44 -8.28857 115.82240 9622 ft 328 kts 140°
2026-04-15 09:44 -8.30614 115.83702 9333 ft 327 kts 140°
2026-04-15 09:44 -8.32363 115.85157 9084 ft 326 kts 140°
2026-04-15 09:45 -8.34096 115.86598 8836 ft 325 kts 140°
2026-04-15 09:45 -8.35840 115.88049 8585 ft 324 kts 140°
2026-04-15 09:45 -8.37542 115.89465 8340 ft 322 kts 140°
2026-04-15 09:45 -8.39261 115.90896 8066 ft 321 kts 140°
2026-04-15 09:46 -8.40977 115.92323 7769 ft 320 kts 140°
2026-04-15 09:46 -8.42705 115.93761 7466 ft 318 kts 140°
2026-04-15 09:46 -8.44393 115.95166 7168 ft 316 kts 140°
2026-04-15 09:46 -8.46082 115.96572 6868 ft 315 kts 140°
2026-04-15 09:47 -8.47744 115.97956 6571 ft 313 kts 140°
2026-04-15 09:47 -8.49428 115.99358 6269 ft 312 kts 140°
2026-04-15 09:47 -8.51082 116.00736 5972 ft 310 kts 140°
2026-04-15 09:47 -8.52733 116.02111 5672 ft 308 kts 140°
2026-04-15 09:48 -8.54375 116.03478 5322 ft 305 kts 140°
2026-04-15 09:48 -8.55997 116.04829 4942 ft 298 kts 140°
2026-04-15 09:48 -8.57568 116.06137 4583 ft 292 kts 140°
2026-04-15 09:48 -8.59080 116.07398 4483 ft 276 kts 140°
2026-04-15 09:49 -8.60449 116.08601 4485 ft 259 kts 132°
2026-04-15 09:49 -8.61551 116.09937 4507 ft 236 kts 128°
2026-04-15 09:49 -8.62543 116.11159 4306 ft 219 kts 128°
2026-04-15 09:49 -8.63463 116.12299 3952 ft 200 kts 128°
2026-04-15 09:50 -8.64300 116.13337 3710 ft 182 kts 128°
2026-04-15 09:50 -8.65115 116.14350 3426 ft 189 kts 128°
2026-04-15 09:50 -8.65944 116.15378 3148 ft 185 kts 128°
2026-04-15 09:50 -8.66701 116.16318 2894 ft 166 kts 128°
2026-04-15 09:51 -8.67438 116.17234 2678 ft 165 kts 128°
2026-04-15 09:51 -8.68156 116.18125 2449 ft 161 kts 128°
2026-04-15 09:51 -8.68819 116.18948 2216 ft 147 kts 128°
2026-04-15 09:51 -8.69444 116.19727 2053 ft 147 kts 128°
2026-04-15 09:52 -8.70083 116.20519 1854 ft 146 kts 128°
2026-04-15 09:52 -8.70713 116.21303 1658 ft 145 kts 128°
2026-04-15 09:52 -8.71337 116.22077 1465 ft 145 kts 128°
2026-04-15 09:52 -8.71974 116.22869 1269 ft 144 kts 128°
2026-04-15 09:53 -8.72588 116.23633 1080 ft 144 kts 128°
2026-04-15 09:53 -8.73215 116.24411 888 ft 143 kts 128°
2026-04-15 09:53 -8.73827 116.25172 700 ft 142 kts 128°
2026-04-15 09:53 -8.74433 116.25925 517 ft 141 kts 129°
2026-04-15 09:54 -8.75038 116.26676 336 ft 139 kts 129°
2026-04-15 09:54 -8.75541 116.27305 322 ft 80 kts 129°
2026-04-15 09:54 -8.75743 116.27553 322 ft 21 kts 129°
2026-04-15 09:54 -8.75826 116.27657 322 ft 17 kts 130°
2026-04-15 09:55 -8.75901 116.27749 322 ft 15 kts 128°
2026-04-15 09:55 -8.75964 116.27822 322 ft 12 kts 149°
2026-04-15 09:55 -8.76036 116.27808 322 ft 10 kts 221°
2026-04-15 09:55 -8.76091 116.27760 322 ft 10 kts 218°
2026-04-15 09:56 -8.76144 116.27718 322 ft 9 kts 218°
2026-04-15 09:56 -8.76174 116.27666 322 ft 9 kts 278°
2026-04-15 09:56 -8.76173 116.27588 322 ft 4 kts 218°
2026-04-15 09:57 -8.76193 116.27573 322 ft 2 kts 219°
2026-04-15 09:57 -8.76202 116.27565 322 ft 1 kts 219°
2026-04-15 09:57 -8.76210 116.27558 322 ft 1 kts 218°
2026-04-15 09:57 -8.76212 116.27557 322 ft 0 kts 218°